Tracking 18032 objects as of 27-March-2017
HD Live streaming from Space Station
objects crossing your sky now

MAQSAT H

Track MAQSAT H now!
10-day predictions
MAQSAT H is classified as:


NORAD ID: 25023
Int'l Code: 1997-066A
Perigee: 750.1 km
Apogee: 27,122.7 km
Inclination: 7.9 °
Period: 480.0 minutes
Semi major axis: 20307 km
RCS: 21.0323 m2 (large)
Launch date: October 30, 1997
Source: European Space Agency (ESA)
Launch site: FRENCH GUIANA (FRGUI)
Your satellite tracking list
Your tracking list is empty





NASA's NSSDC Master Catalog

Two Line Element Set (TLE):
1 25023U 97066A   17085.95662837 +.00000111 +00000-0 +78519-3 0  9993
2 25023 007.8846 062.4915 6493355 045.0510 164.5118 03.09977887219325
Source of the keplerian elements: AFSPC